Find Starlink 11081

NORAD ID: 60405 Int'l Des: 2024-141 Owner: SPXS Country: US Constellation: starlink operational
LEOCIRCULAR

Live-Position

3D-Globus wird geladen...

Über Starlink 11081

Beschreibung wird geladen...

Nächste Überflüge

Passes for default location (London). Set your location on the main map for personalized predictions.

Höhenverlauf

Loading altitude history...

Zweizeiliger Elementsatz

1 60405U 24141H 26125.50841326 .00000911 00000-0 12374-4 0 9994
2 60405 53.1590 166.4043 0001021 57.6943 302.4174 15.69717315100616
Epoch: 5. Mai 2026 • Age: 15 hours

Aktueller Status

Höhe 377.5 km
Geschwindigkeit 7.68 km/s
Subsatellitenpunkt -49.69°S, 135.44°E
Startdatum 10. Aug. 2024
Alter 1.7 years
Typ internet

Technische Details

Klassifizierung Payload
Masse 960.00 kg
Trockenmasse 910.00 kg
Gesamtmasse 960.00 kg
Länge 0.30 m
Durchmesser 4.10 m
Spannweite 29.00 m
Form Box + pan
Hersteller SPXS
Bus-Typ Starlink V2MD
Phasenstatus In Orbit
Besitzer/Staat SPXS/US

Most Searched